Location: Ailingen
(47.6833°N, 9.5000°E)
Time: 11:48:49
(UTC+00:00)

SL-12 R/B(2) - Pass Details

Date: 18 November 2025
Orbit: 1173 x 2175 km, 63.4° (Epoch: 11 December)

Event Time Altitude Azimuth Distance (km) Brightness Sun altitude
Rises 17:15:56 0° 222° (SW) 4,188 7.7 -15.6°
Reaches altitude 10° 17:18:31 10° 223° (SW) 3,298 7.1 -16.1°
Maximum altitude 17:26:32 82° 312° (NW) 1,485 4.4 -17.4°
Enters shadow 17:35:43 13° 40° (NE) 3,782 6.1 -18.9°
